Previsão horária em Abramkovo

Hoje, 18 Maio, Terça-feira

Tempo Temperatura Precipitação Vento Pressão Humidade
00:00 +17°C° 0 mm 4 m/s 732 mmHg 85%
01:00 +17°C° 0 mm 3 m/s 732 mmHg 89%
02:00 +16°C° 0 mm 3 m/s 732 mmHg 92%
03:00 +15°C° 0 mm 4 m/s 732 mmHg 93%
04:00 +15°C° 0 mm 4 m/s 732 mmHg 94%
05:00 +15°C° 0 mm 4 m/s 732 mmHg 94%
06:00 +17°C° 0 mm 5 m/s 732 mmHg 89%
07:00 +19°C° 0 mm 5 m/s 733 mmHg 85%
08:00 +20°C° 0 mm 6 m/s 733 mmHg 80%
09:00 +21°C° 0 mm 5 m/s 733 mmHg 75%
10:00 +22°C° 0 mm 5 m/s 733 mmHg 71%
11:00 +23°C° 0 mm 5 m/s 733 mmHg 67%
12:00 +21°C° 1.1 mm 5 m/s 733 mmHg 74%
13:00 +20°C° 1.1 mm 4 m/s 733 mmHg 81%
14:00 +19°C° 1.1 mm 4 m/s 732 mmHg 88%
15:00 +19°C° 0.8 mm 4 m/s 732 mmHg 86%
16:00 +20°C° 0.8 mm 4 m/s 732 mmHg 85%
17:00 +20°C° 0.8 mm 5 m/s 732 mmHg 83%
18:00 +19°C° 0.8 mm 4 m/s 732 mmHg 85%
19:00 +17°C° 0.8 mm 4 m/s 732 mmHg 88%
20:00 +15°C° 0.8 mm 4 m/s 732 mmHg 90%
21:00 +14°C° 0 mm 3 m/s 732 mmHg 92%
22:00 +14°C° 0 mm 3 m/s 732 mmHg 94%
23:00 +14°C° 0 mm 3 m/s 732 mmHg 96%

Amanhã, 19 Maio, Quarta-feira

Tempo Temperatura Precipitação Vento Pressão Humidade
00:00 +13°C° 0 mm 3 m/s 732 mmHg 96%
01:00 +13°C° 0 mm 3 m/s 732 mmHg 96%
02:00 +13°C° 0 mm 4 m/s 732 mmHg 97%
03:00 +13°C° 0 mm 4 m/s 732 mmHg 97%
04:00 +13°C° 0 mm 3 m/s 732 mmHg 97%
05:00 +13°C° 0 mm 3 m/s 732 mmHg 97%
06:00 +14°C° 0 mm 4 m/s 732 mmHg 91%
07:00 +15°C° 0 mm 4 m/s 733 mmHg 86%
08:00 +17°C° 0 mm 5 m/s 733 mmHg 81%
09:00 +17°C° 0.1 mm 5 m/s 733 mmHg 76%
10:00 +19°C° 0.1 mm 5 m/s 733 mmHg 72%
11:00 +20°C° 0.1 mm 5 m/s 733 mmHg 68%
12:00 +20°C° 0 mm 5 m/s 733 mmHg 63%
13:00 +21°C° 0 mm 5 m/s 733 mmHg 58%
14:00 +22°C° 0 mm 4 m/s 733 mmHg 53%
15:00 +21°C° 0.2 mm 4 m/s 733 mmHg 59%
16:00 +21°C° 0.2 mm 3 m/s 734 mmHg 65%
17:00 +20°C° 0.2 mm 3 m/s 734 mmHg 71%
18:00 +18°C° 0.5 mm 2 m/s 734 mmHg 78%
19:00 +17°C° 0.5 mm 2 m/s 734 mmHg 85%
20:00 +15°C° 0.5 mm 1 m/s 734 mmHg 91%
21:00 +15°C° 0 mm 1 m/s 734 mmHg 93%
22:00 +14°C° 0 mm 1 m/s 734 mmHg 94%
23:00 +14°C° 0 mm 1 m/s 734 mmHg 95%

Depois de amanhã, 20 Maio, Quinta-feira

Tempo Temperatura Precipitação Vento Pressão Humidade
00:00 +14°C° 0.1 mm 1 m/s 734 mmHg 96%
01:00 +13°C° 0.1 mm 2 m/s 734 mmHg 97%
02:00 +13°C° 0.1 mm 2 m/s 734 mmHg 97%
03:00 +13°C° 0.2 mm 2 m/s 733 mmHg 97%
04:00 +13°C° 0.2 mm 2 m/s 733 mmHg 98%
05:00 +13°C° 0.2 mm 3 m/s 733 mmHg 98%
06:00 +14°C° 0.4 mm 2 m/s 733 mmHg 95%
07:00 +15°C° 0.4 mm 2 m/s 733 mmHg 93%
08:00 +16°C° 0.4 mm 2 m/s 732 mmHg 91%
09:00 +17°C° 0.7 mm 2 m/s 732 mmHg 89%
10:00 +17°C° 0.7 mm 2 m/s 732 mmHg 87%
11:00 +18°C° 0.7 mm 2 m/s 731 mmHg 85%
12:00 +17°C° 1.1 mm 3 m/s 731 mmHg 87%
13:00 +17°C° 1.1 mm 3 m/s 731 mmHg 88%
14:00 +16°C° 1.1 mm 3 m/s 731 mmHg 89%
15:00 +16°C° 0.4 mm 3 m/s 731 mmHg 89%
16:00 +16°C° 0.4 mm 2 m/s 730 mmHg 88%
17:00 +16°C° 0.4 mm 2 m/s 730 mmHg 88%
18:00 +15°C° 0.4 mm 2 m/s 730 mmHg 90%
19:00 +14°C° 0.4 mm 2 m/s 730 mmHg 93%
20:00 +13°C° 0.4 mm 2 m/s 730 mmHg 96%
21:00 +12°C° 0 mm 2 m/s 730 mmHg 96%
22:00 +12°C° 0 mm 2 m/s 730 mmHg 97%
23:00 +11°C° 0 mm 1 m/s 730 mmHg 97%

21 Maio, Sexta-feira

Tempo Temperatura Precipitação Vento Pressão Humidade
00:00 +10°C° 0 mm 2 m/s 730 mmHg 98%
01:00 +10°C° 0 mm 2 m/s 729 mmHg 98%
02:00 +9°C° 0 mm 2 m/s 729 mmHg 98%
03:00 +9°C° 0.3 mm 2 m/s 729 mmHg 98%
04:00 +9°C° 0.3 mm 2 m/s 729 mmHg 97%
05:00 +9°C° 0.3 mm 2 m/s 729 mmHg 97%
06:00 +9°C° 0.4 mm 2 m/s 729 mmHg 97%
07:00 +9°C° 0.4 mm 3 m/s 730 mmHg 97%
08:00 +9°C° 0.4 mm 3 m/s 730 mmHg 97%
09:00 +8°C° 0.2 mm 4 m/s 730 mmHg 96%
10:00 +8°C° 0.2 mm 4 m/s 731 mmHg 96%
11:00 +8°C° 0.2 mm 5 m/s 732 mmHg 95%
12:00 +7°C° 0.4 mm 5 m/s 733 mmHg 95%
13:00 +7°C° 0.4 mm 6 m/s 734 mmHg 95%
14:00 +7°C° 0.4 mm 6 m/s 735 mmHg 94%
15:00 +7°C° 0.2 mm 6 m/s 735 mmHg 93%
16:00 +7°C° 0.2 mm 5 m/s 736 mmHg 92%
17:00 +8°C° 0.2 mm 5 m/s 737 mmHg 91%
18:00 +8°C° 0 mm 4 m/s 737 mmHg 91%
19:00 +8°C° 0 mm 4 m/s 738 mmHg 91%
20:00 +9°C° 0 mm 3 m/s 738 mmHg 91%
21:00 +8°C° 0 mm 3 m/s 738 mmHg 92%
22:00 +8°C° 0 mm 3 m/s 739 mmHg 92%
23:00 +7°C° 0 mm 3 m/s 739 mmHg 92%

22 Maio, Sábado

Tempo Temperatura Precipitação Vento Pressão Humidade
00:00 +7°C° 0 mm 3 m/s 739 mmHg 93%
01:00 +7°C° 0 mm 3 m/s 739 mmHg 93%
02:00 +7°C° 0 mm 2 m/s 740 mmHg 94%
03:00 +7°C° 0 mm 2 m/s 740 mmHg 94%
04:00 +7°C° 0 mm 3 m/s 740 mmHg 94%
05:00 +7°C° 0 mm 3 m/s 740 mmHg 94%
06:00 +8°C° 0 mm 3 m/s 741 mmHg 84%
07:00 +9°C° 0 mm 3 m/s 741 mmHg 74%
08:00 +11°C° 0 mm 3 m/s 741 mmHg 65%
09:00 +12°C° 0.1 mm 4 m/s 741 mmHg 60%
10:00 +13°C° 0.1 mm 4 m/s 741 mmHg 55%
11:00 +13°C° 0.1 mm 4 m/s 741 mmHg 51%
12:00 +13°C° 0 mm 4 m/s 741 mmHg 53%
13:00 +13°C° 0 mm 4 m/s 741 mmHg 55%
14:00 +13°C° 0 mm 3 m/s 742 mmHg 57%
15:00 +14°C° 0 mm 3 m/s 742 mmHg 56%
16:00 +14°C° 0 mm 3 m/s 742 mmHg 56%
17:00 +14°C° 0 mm 3 m/s 742 mmHg 55%
18:00 +14°C° 0 mm 2 m/s 742 mmHg 62%
19:00 +12°C° 0 mm 2 m/s 742 mmHg 69%
20:00 +9°C° 0 mm 2 m/s 742 mmHg 76%
21:00 +9°C° 0 mm 2 m/s 742 mmHg 78%
22:00 +8°C° 0 mm 2 m/s 743 mmHg 80%
23:00 +8°C° 0 mm 2 m/s 743 mmHg 82%

23 Maio, Domingo

Tempo Temperatura Precipitação Vento Pressão Humidade
00:00 +7°C° 0 mm 2 m/s 743 mmHg 83%
01:00 +7°C° 0 mm 2 m/s 743 mmHg 83%
02:00 +8°C° 0 mm 1 m/s 743 mmHg 84%
03:00 +7°C° 0 mm 2 m/s 743 mmHg 84%
04:00 +7°C° 0 mm 2 m/s 743 mmHg 83%
05:00 +7°C° 0 mm 2 m/s 744 mmHg 83%
06:00 +9°C° 0 mm 2 m/s 744 mmHg 77%
07:00 +12°C° 0 mm 2 m/s 744 mmHg 72%
08:00 +13°C° 0 mm 3 m/s 744 mmHg 67%
09:00 +14°C° 0 mm 3 m/s 744 mmHg 63%
10:00 +16°C° 0 mm 3 m/s 744 mmHg 59%
11:00 +17°C° 0 mm 3 m/s 744 mmHg 55%
12:00 +18°C° 0 mm 3 m/s 743 mmHg 54%
13:00 +18°C° 0 mm 3 m/s 743 mmHg 52%
14:00 +19°C° 0 mm 3 m/s 743 mmHg 51%
15:00 +19°C° 0 mm 3 m/s 743 mmHg 54%
16:00 +18°C° 0 mm 3 m/s 742 mmHg 57%
17:00 +18°C° 0 mm 3 m/s 742 mmHg 60%
18:00 +17°C° 0 mm 3 m/s 742 mmHg 67%
19:00 +15°C° 0 mm 2 m/s 742 mmHg 74%
20:00 +13°C° 0 mm 2 m/s 742 mmHg 81%
21:00 +13°C° 0 mm 2 m/s 742 mmHg 84%
22:00 +12°C° 0 mm 2 m/s 742 mmHg 86%
23:00 +12°C° 0 mm 2 m/s 742 mmHg 88%
Mostrar mais

Necessitamos do seu Consentimento

A Meteoprog e os seus Fornecedores de Serviços podem armazenar e aceder a dados pessoais como cookies, identificadores do dispositivo ou outras tecnologias semelhantes existentes no seu dispositivo e processar estes dados para personalizar conteúdos e anúncios, assim como funcionalidades nas redes sociais e análise de tráfego.

  • Armazenar e/ou aceder a informações no seu dispositivo

    Os cookies, identificadores do dispositivo ou outras informações podem ser armazenados ou acedidos no seu dispositivo, para os fins acima indicados.

  • Anúncios e conteúdos personalizados, medição de anúncios e conteúdos, dados sobre o público-alvo e desenvolvimento de produtos

    Os anúncios e os conteúdos podem ser personalizados com base num perfil. Podem ser adicionados dados adicionais para uma maior personalização dos anúncios e dos conteúdos. A eficácia dos anúncios e dos conteúdos pode ser medida. Podem ser obtidas informações sobre o público que visualizou os anúncios e os conteúdos. Estes dados podem ser usados para desenvolver ou melhorar sistemas, softwares ou a experiência do utilizador.

Ao clicar em "Eu concordo”, permitirá o uso de cookies, identificadores do dispositivo e web beacons mencionados ou outras tecnologias semelhantes. As configurações do navegador do seu dispositivo podem ser alteradas.

Para certos fins, podem ser invocados interesses legítimos ao invés de consentimento. Pode ler mais informação sobre este assunto na nossa Política de Privacidade e Cookies.